Погода в Армавире

Поиск расширенной информации на нашем сайте:

Полезная информация:

Новости сайта



02.01.2020
Опубликован Долгосрочный прогноз погоды по городам России и ближнего зарубежья на январь 2020 года.
Карты: Прогноз на январь и февраль 2020 года, Сравнение прогнозируемой аномалии приземной температуры воздуха на январь 2020 года по разным моделям.




Погода в Армавире - сегодня

Время (UTC), дата Ветер
(°,м/с) 
Видим.   Явления Облачность Т
(°С)
Тd
(°С)
f(%) Тe
(°С)
Pmin
(гПа)
dP
(гПа)
Po
(мм)
O2
(г/м3)
Тmin Tmax R s Состояние
почвы
21 22.09.20 080 (В) 10 км    ясно 
+13.4 +6 61 +15  1018.9  -0.4  750  287           
00 23.09.20 тихо ()   10 км    ясно 
+9.5 +3.7 67 +10  1019.4  0.2  750  291           
03 23.09.20 тихо ()   10 км    3/0 верхняя 
[Ci fib]
+10 +8.2 89 +10  1019.2  0.1  750  290  +9.5        сухая 
06 23.09.20 120 (ЮВ) 10 км    ясно 
+20 +12.1 60 +24  1018.1  -0.5  750  279  +9.4         
09 23.09.20 100 (В) 4{10}  10 км    ясно 
+26.2 +8.6 33 +26  1016.3  -1.4  749  274           
12 23.09.20 070 (В) 10 км    ясно 
+28.4 +3.9 21 +28  1014.6  -1.6  747  272           
15 23.09.20 080 (В) 10 км    ясно 
+25.4 +5.4 28 +25  1014.5  -0.2  747  275    +28.6       
18 23.09.20 140 (ЮВ) 10 км    ясно 
+20.4 +7.8 44 +20  1015  0.2  747  279           
21 23.09.20 130 (ЮВ) 10 км    ясно 
+13.2 +8.4 73 +14  1015.3  -0.2  747  286           
00 24.09.20 тихо ()   10 км    ясно 
+10.7 +7.7 82 +11  1015.9  0.5  748  289           
03 24.09.20 100 (В) 10 км    ясно 
+13.9 +11.7 87 +19  1015.9  0.2  748  284  +9.9        сухая 
06 24.09.20 130 (ЮВ) 10 км    ясно 
+19.4 +12.2 63 +24  1015.3  0.1  748  279           
09 24.09.20 150 (ЮВ) 10 км    ясно 
+25.7 +11.4 41 +29  1014.1  -0.8  747  273           
12 24.09.20 040 (СВ) 10 км    3/0 верхняя 
[Cc]
+29.5 +5.3 22 +30  1012.9  -1  746  271           
15 24.09.20 110 (В) 10 км    4/0 средняя 
[Ac cast]
+25.5 +7 31 +26  1013.4  0.2  746  274    +29.9       
18 24.09.20 120 (ЮВ) 10 км    3/0 средняя 
[Ac trans]
+22.7 +10.1 45 +24  1014.1  0.6  747  276           
21 24.09.20 110 (В) 10 км    ясно 
+20.3 +11.8 58 +24  1014  -0.3  747  278           
00 25.09.20 130 (ЮВ) 10 км    ясно 
+17.7 +11.9 69 +23  1013.9  -0.2  746  280           
03 25.09.20 110 (В) 10 км    ясно 
+15.5 +11.8 79 +21  1014.1  746  282  +15.5        сухая 
06 25.09.20 130 (ЮВ) 10 км    ясно 
+20.6 +12.7 61 +26  1013.7  746  277           
09 25.09.20 140 (ЮВ) 10 км    3/0 верхняя 
[Ci fib]
+26.6 +12.6 42 +32  1012.2  -1.2  746  271           
12 25.09.20 110 (В) 10 км    8/0 верхняя 
[Ci]
+29.1 +9.7 30 +30  1010.8  -1.2  745  269           
15 25.09.20 080 (В) 10 км    3/0 верхняя 
[Ci fib]
+26.2 +8.6 33 +26  1010.7  -0.3  744  272    +29.4       
18 25.09.20 080 (В) 10 км    ясно 
+22.2 +10.2 46 +24  1010.9  744  276           
21 25.09.20 150 (ЮВ) 10 км    ясно 
+16.7 +11.3 70 +21  1010.4  -0.8  744  280           
Время (UTC), дата Ветер
(°,м/с) 
Видим.   Явления Облачность Т
(°С)
Тd
(°С)
f(%) Тe
(°С)
Pmin
(гПа)
dP
(гПа)
Po
(мм)
O2
(г/м3)
Тmin Tmax R s Состояние
почвы

Для получения пояснительной информации подведите курсор к названию столбца.

ПОГОДА в Армавире - архив

Всё, что Вы хотите узнать о погоде в Армавире - удобно и подробно!

Выберите нужную дату (начиная с 1 января 2019* года) и нажмите кнопку "Найти".
Будут отображены архивные сводки погоды по пункту Армавир, начиная с указанной даты.


Отображать данные в формате CSV (для использования в таблицах Excel)


Внимание! Наш архив погоды предназначен исключительно для личного некоммерческого использования в познавательных целях. Если Вам необходимы официальные справки о состоянии погоды (для производственных, юридических, коммерческих и т.п. целей), обращайтесь в органы Росгидромета.

*Примечание: данная дата относится к архиву по метеостанциям СССР (Россия, СНГ, Балтия).
Архив по метеостанциям Зарубежной Европы и Азии (кроме Китая) хранится 10 дней, по другим регионам земного шара (Китай, Африка, Америка, Австралия, Океания) - 1 день.

Армавир - район местоположения метеостанции


Название, широта, долгота, высота метеостанции:
Армавир 45°ш. 41.1°д. 159 м над ур. моря [Российская Федерация]

Дополнительная информация

В oтличие oт бoльшинства пoгoдных сайтoв мы публикуем пoдрoбную метеoинфoрмацию в детальнoм прoфессиoнальнoм фoрмате.

Характеристики температуры и влажнoсти вoздуха измеряются на высoте 2 м в тени вдали oт зданий и деревьев.
Скoрoсть ветра измеряется на высoте 10 м (на урoвне рoста челoвека скoрoсть ветра ниже в 1.5-2 раза). Если метеoстанция нахoдится в гoрoде или в лесу, тo скoрoсть ветра занижена на 2-4 м/с пo сравнению с oткрытым местoм. Скoрoсть ветра над акватoриями крупных рек и oзёр, а также на вершинах хoлмoв на 2-5 м/с выше, чем в oбычных услoвиях.
Атмoсфернoе давление в разных тoчках местнoсти мoжет значительнo oтличаться oт давления на метеoстанции, в зависимoсти oт услoвий рельефа (при пoдъёме на 10 м давление пoнижается примернo на 1 мм рт.ст.).